Location: Newark
(45.9167°N, 5.5000°E)
Time: 11:21:10
(UTC+00:00)

N. Korean satellite - Pass Details

Date: 29 January 2020
Orbit: 456 x 505 km, 97.2° (Epoch: 25 February)

Event Time Altitude Azimuth Distance (km) Brightness Sun altitude
Rises 05:33:42 0° 11° (N) 2,552 10.3 -15.8°
Reaches altitude 10° 05:35:45 10° 11° (N) 1,676 9.3 -15.5°
Maximum altitude 05:39:22 85° 285° (WNW) 498 6.5 -14.9°
Drops below altitude 10° 05:43:00 10° 196° (SSW) 1,688 9.3 -14.2°
Sets 05:45:05 0° 195° (SSW) 2,572 10.2 -13.9°
